• In Uzbekistan
  • List of Countries
  • For 7 days
  • Water Temperature
  • Satellite Maps
  • Weather Map
  • Weather Widgets
  • user-avatar
    Login

    Hourly Weather Shaki

    Today, 9 December, Friday

    Time Temperature Precipitation Wind Pressure Humidity
    00:00 -4°C° 0 mm 1 mps 745 mmHg 85%
    01:00 -4°C° 0 mm 1 mps 744 mmHg 81%
    02:00 -4°C° 0 mm 1 mps 743 mmHg 78%
    03:00 -4°C° 0 mm 1 mps 742 mmHg 73%
    04:00 -5°C° 0 mm 2 mps 742 mmHg 71%
    05:00 -5°C° 0 mm 2 mps 741 mmHg 68%
    06:00 -5°C° 0 mm 2 mps 740 mmHg 65%
    07:00 -5°C° 0 mm 3 mps 739 mmHg 59%
    08:00 -3°C° 0 mm 4 mps 739 mmHg 54%
    09:00 -1°C° 0 mm 5 mps 737 mmHg 47%
    10:00 0°C° 0 mm 5 mps 737 mmHg 46%
    11:00 +1°C° 0 mm 5 mps 736 mmHg 44%
    12:00 +2°C° 0 mm 6 mps 735 mmHg 43%
    13:00 +2°C° 0 mm 6 mps 735 mmHg 44%
    14:00 +2°C° 0 mm 5 mps 735 mmHg 46%
    15:00 +2°C° 0 mm 5 mps 734 mmHg 47%
    16:00 +1°C° 0 mm 4 mps 734 mmHg 50%
    17:00 0°C° 0 mm 4 mps 735 mmHg 54%
    18:00 0°C° 0 mm 3 mps 735 mmHg 57%
    19:00 0°C° 0 mm 3 mps 735 mmHg 59%
    20:00 0°C° 0 mm 3 mps 735 mmHg 61%
    21:00 -1°C° 0 mm 3 mps 735 mmHg 64%
    22:00 -2°C° 0 mm 3 mps 735 mmHg 66%
    23:00 -2°C° 0 mm 2 mps 734 mmHg 68%

    Tomorrow, 10 December, Saturday

    Time Temperature Precipitation Wind Pressure Humidity
    00:00 -3°C° 0 mm 2 mps 734 mmHg 69%
    01:00 -3°C° 0 mm 2 mps 734 mmHg 70%
    02:00 -3°C° 0 mm 2 mps 734 mmHg 70%
    03:00 -3°C° 0 mm 2 mps 734 mmHg 70%
    04:00 -3°C° 0 mm 2 mps 734 mmHg 69%
    05:00 -2°C° 0 mm 2 mps 734 mmHg 67%
    06:00 -2°C° 0 mm 2 mps 734 mmHg 66%
    07:00 +1°C° 0 mm 2 mps 734 mmHg 62%
    08:00 +3°C° 0 mm 2 mps 734 mmHg 59%
    09:00 +3°C° 0 mm 3 mps 734 mmHg 56%
    10:00 +5°C° 0 mm 3 mps 733 mmHg 54%
    11:00 +6°C° 0 mm 4 mps 733 mmHg 53%
    12:00 +7°C° 0 mm 4 mps 732 mmHg 51%
    13:00 +7°C° 0 mm 4 mps 732 mmHg 52%
    14:00 +7°C° 0 mm 4 mps 731 mmHg 53%
    15:00 +7°C° 0 mm 3 mps 731 mmHg 54%
    16:00 +5°C° 0 mm 3 mps 731 mmHg 56%
    17:00 +4°C° 0 mm 4 mps 732 mmHg 58%
    18:00 +1°C° 0 mm 4 mps 732 mmHg 60%
    19:00 +1°C° 0 mm 4 mps 732 mmHg 60%
    20:00 +1°C° 0 mm 4 mps 732 mmHg 60%
    21:00 +3°C° 0 mm 3 mps 732 mmHg 60%
    22:00 +2°C° 0 mm 3 mps 732 mmHg 61%
    23:00 +2°C° 0 mm 3 mps 732 mmHg 62%

    Day after tomorrow, 11 December, Sunday

    Time Temperature Precipitation Wind Pressure Humidity
    00:00 +2°C° 0 mm 3 mps 732 mmHg 62%
    01:00 +2°C° 0 mm 3 mps 732 mmHg 64%
    02:00 +1°C° 0 mm 3 mps 732 mmHg 65%
    03:00 +1°C° 0 mm 3 mps 732 mmHg 67%
    04:00 0°C° 0 mm 3 mps 733 mmHg 69%
    05:00 +1°C° 0 mm 2 mps 733 mmHg 71%
    06:00 -1°C° 0 mm 2 mps 733 mmHg 74%
    07:00 +2°C° 0 mm 2 mps 733 mmHg 70%
    08:00 +3°C° 0 mm 2 mps 734 mmHg 66%
    09:00 +5°C° 0 mm 2 mps 734 mmHg 63%
    10:00 +6°C° 0 mm 2 mps 734 mmHg 60%
    11:00 +7°C° 0 mm 3 mps 734 mmHg 58%
    12:00 +7°C° 0 mm 4 mps 733 mmHg 55%
    13:00 +7°C° 0 mm 4 mps 733 mmHg 56%
    14:00 +7°C° 0 mm 4 mps 733 mmHg 57%
    15:00 +7°C° 0 mm 4 mps 733 mmHg 57%
    16:00 +5°C° 0 mm 3 mps 733 mmHg 61%
    17:00 +3°C° 0 mm 3 mps 733 mmHg 64%
    18:00 +2°C° 0 mm 3 mps 733 mmHg 67%
    19:00 +2°C° 0 mm 3 mps 733 mmHg 67%
    20:00 +2°C° 0 mm 3 mps 733 mmHg 67%
    21:00 +2°C° 0 mm 3 mps 733 mmHg 67%
    22:00 +2°C° 0 mm 3 mps 733 mmHg 66%
    23:00 +2°C° 0 mm 3 mps 733 mmHg 66%

    12 December, Monday

    Time Temperature Precipitation Wind Pressure Humidity
    00:00 +2°C° 0 mm 3 mps 733 mmHg 65%
    01:00 +2°C° 0 mm 3 mps 734 mmHg 65%
    02:00 +2°C° 0 mm 3 mps 734 mmHg 65%
    03:00 +2°C° 0 mm 3 mps 734 mmHg 65%
    04:00 +2°C° 0 mm 3 mps 734 mmHg 65%
    05:00 +2°C° 0 mm 3 mps 734 mmHg 66%
    06:00 +2°C° 0 mm 3 mps 734 mmHg 66%
    07:00 +3°C° 0 mm 3 mps 734 mmHg 64%
    08:00 +5°C° 0 mm 3 mps 734 mmHg 61%
    09:00 +7°C° 0 mm 3 mps 734 mmHg 58%
    10:00 +9°C° 0 mm 3 mps 734 mmHg 56%
    11:00 +10°C° 0 mm 3 mps 733 mmHg 53%
    12:00 +11°C° 0 mm 4 mps 732 mmHg 51%
    13:00 +11°C° 0 mm 3 mps 732 mmHg 52%
    14:00 +11°C° 0 mm 3 mps 731 mmHg 53%
    15:00 +11°C° 0 mm 3 mps 731 mmHg 53%
    16:00 +9°C° 0 mm 3 mps 731 mmHg 56%
    17:00 +8°C° 0 mm 3 mps 731 mmHg 59%
    18:00 +5°C° 0 mm 3 mps 731 mmHg 62%
    19:00 +5°C° 0 mm 3 mps 730 mmHg 62%
    20:00 +5°C° 0 mm 3 mps 730 mmHg 62%
    21:00 +5°C° 0 mm 3 mps 730 mmHg 61%
    22:00 +5°C° 0 mm 3 mps 730 mmHg 61%
    23:00 +5°C° 0 mm 3 mps 730 mmHg 61%

    13 December, Tuesday

    Time Temperature Precipitation Wind Pressure Humidity
    00:00 +5°C° 0 mm 3 mps 730 mmHg 60%
    01:00 +5°C° 0 mm 3 mps 730 mmHg 60%
    02:00 +5°C° 0 mm 3 mps 730 mmHg 59%
    03:00 +5°C° 0 mm 3 mps 730 mmHg 58%
    04:00 +5°C° 0 mm 3 mps 730 mmHg 59%
    05:00 +4°C° 0 mm 3 mps 730 mmHg 59%
    06:00 +4°C° 0 mm 3 mps 729 mmHg 59%
    07:00 +5°C° 0 mm 3 mps 730 mmHg 58%
    08:00 +7°C° 0 mm 3 mps 730 mmHg 56%
    09:00 +8°C° 0 mm 2 mps 730 mmHg 55%
    10:00 +10°C° 0 mm 3 mps 730 mmHg 52%
    11:00 +11°C° 0 mm 3 mps 729 mmHg 50%
    12:00 +12°C° 0 mm 3 mps 729 mmHg 47%
    13:00 +12°C° 0 mm 3 mps 729 mmHg 47%
    14:00 +12°C° 0 mm 3 mps 729 mmHg 47%
    15:00 +13°C° 0 mm 2 mps 729 mmHg 48%
    16:00 +10°C° 0 mm 2 mps 729 mmHg 50%
    17:00 +8°C° 0 mm 2 mps 729 mmHg 53%
    18:00 +6°C° 0 mm 2 mps 729 mmHg 55%
    19:00 +6°C° 0 mm 2 mps 729 mmHg 56%
    20:00 +6°C° 0 mm 2 mps 729 mmHg 58%
    21:00 +6°C° 0 mm 2 mps 729 mmHg 59%
    22:00 +5°C° 0 mm 2 mps 729 mmHg 60%
    23:00 +5°C° 0 mm 2 mps 729 mmHg 61%

    14 December, Wednesday

    Time Temperature Precipitation Wind Pressure Humidity
    00:00 +5°C° 0 mm 2 mps 729 mmHg 62%
    01:00 +5°C° 0 mm 2 mps 730 mmHg 63%
    02:00 +5°C° 0 mm 2 mps 730 mmHg 65%
    03:00 +5°C° 0 mm 2 mps 730 mmHg 66%
    04:00 +6°C° 0.1 mm 1 mps 730 mmHg 68%
    05:00 +5°C° 0.1 mm 1 mps 731 mmHg 70%
    06:00 +5°C° 0.1 mm 1 mps 731 mmHg 72%
    07:00 +6°C° 0.3 mm 1 mps 731 mmHg 72%
    08:00 +7°C° 0.3 mm 1 mps 732 mmHg 72%
    09:00 +8°C° 0.3 mm 1 mps 732 mmHg 71%
    10:00 +7°C° 0.4 mm 2 mps 732 mmHg 72%
    11:00 +7°C° 0.4 mm 2 mps 732 mmHg 72%
    12:00 +7°C° 0.4 mm 2 mps 732 mmHg 73%
    13:00 +7°C° 0.4 mm 2 mps 732 mmHg 75%
    14:00 +7°C° 0.4 mm 2 mps 732 mmHg 78%
    15:00 +6°C° 0.4 mm 2 mps 732 mmHg 80%
    16:00 +6°C° 0.7 mm 2 mps 733 mmHg 82%
    17:00 +5°C° 0.7 mm 2 mps 733 mmHg 84%
    18:00 +6°C° 0.7 mm 1 mps 733 mmHg 86%
    19:00 +5°C° 0.6 mm 2 mps 733 mmHg 87%
    20:00 +4°C° 0.6 mm 2 mps 734 mmHg 87%
    21:00 +4°C° 0.6 mm 2 mps 734 mmHg 87%
    22:00 +4°C° 0.4 mm 2 mps 734 mmHg 88%
    23:00 +3°C° 0.4 mm 2 mps 734 mmHg 89%
    Show more